Location: Champs
(48.8539°N, 2.6040°E)
Time: 04:35:45
(UTC+00:00)

Lacrosse 5 rocket - Pass Details

Date: 26 October 2021
Orbit: 459 x 633 km, 57.0° (Epoch: 30 November)

Event Time Altitude Azimuth Distance (km) Brightness Sun altitude
Exits shadow 03:03:44 20° 44° (NE) 1,404 3.9 -33.6°
Drops below altitude 10° 03:05:11 10° 51° (NE) 1,939 4.8 -33.4°
Sets 03:07:34 0° 56° (NE) 2,869 6.0 -33.0°
